TimeCDT,TemperatureF,Dew PointF,Humidity,Sea Level PressureIn,VisibilityMPH,Wind Direction,Wind SpeedMPH,Gust SpeedMPH,PrecipitationIn,Events,Conditions,WindDirDegrees,DateUTC
12:15 AM,37.4,37.0,99,29.98,10.0,Calm,Calm,-,N/A,,Clear,0,2013-09-22 05:15:00
12:35 AM,37.6,37.6,100,29.99,10.0,Calm,Calm,-,N/A,,Clear,0,2013-09-22 05:35:00
12:55 AM,37.9,37.4,98,29.99,10.0,Calm,Calm,-,N/A,,Clear,0,2013-09-22 05:55:00
1:15 AM,37.0,36.5,98,29.99,10.0,Calm,Calm,-,N/A,,Clear,0,2013-09-22 06:15:00
1:35 AM,36.9,36.7,99,30.00,10.0,Calm,Calm,-,N/A,,Mostly Cloudy,0,2013-09-22 06:35:00
1:55 AM,36.7,36.5,99,30.01,10.0,Calm,Calm,-,N/A,,Mostly Cloudy,0,2013-09-22 06:55:00
2:15 AM,36.3,36.3,100,30.01,10.0,Calm,Calm,-,N/A,,Clear,0,2013-09-22 07:15:00
2:35 AM,35.6,35.6,100,30.01,10.0,Calm,Calm,-,N/A,,Clear,0,2013-09-22 07:35:00
2:55 AM,35.6,35.4,99,30.01,10.0,Calm,Calm,-,N/A,,Clear,0,2013-09-22 07:55:00
3:15 AM,36.0,36.0,100,30.01,10.0,Calm,Calm,-,N/A,,Clear,0,2013-09-22 08:15:00
3:35 AM,37.9,37.6,99,30.01,10.0,Calm,Calm,-,N/A,,Clear,0,2013-09-22 08:35:00
3:55 AM,38.7,38.1,98,30.02,10.0,Calm,Calm,-,N/A,,Clear,0,2013-09-22 08:55:00
4:15 AM,36.1,36.1,100,30.02,10.0,Calm,Calm,-,N/A,,Clear,0,2013-09-22 09:15:00
4:35 AM,34.9,34.9,100,30.02,10.0,Calm,Calm,-,N/A,,Clear,0,2013-09-22 09:35:00
4:55 AM,35.2,35.2,100,30.02,10.0,Calm,Calm,-,N/A,,Clear,0,2013-09-22 09:55:00
5:15 AM,34.2,33.8,99,30.03,10.0,Calm,Calm,-,N/A,,Clear,0,2013-09-22 10:15:00
5:35 AM,33.4,33.4,100,30.03,10.0,Calm,Calm,-,N/A,,Clear,0,2013-09-22 10:35:00
5:55 AM,34.0,34.0,100,30.04,10.0,Calm,Calm,-,N/A,,Clear,0,2013-09-22 10:55:00
6:15 AM,33.8,33.8,100,30.04,10.0,Calm,Calm,-,N/A,,Clear,0,2013-09-22 11:15:00
6:35 AM,34.0,34.0,100,30.05,10.0,Calm,Calm,-,N/A,,Clear,0,2013-09-22 11:35:00
6:55 AM,31.8,31.8,100,30.05,10.0,Calm,Calm,-,N/A,,Clear,0,2013-09-22 11:55:00
7:15 AM,32.5,32.5,100,30.06,10.0,Calm,Calm,-,N/A,,Clear,0,2013-09-22 12:15:00
7:35 AM,34.7,34.7,100,30.06,10.0,Calm,Calm,-,N/A,,Clear,0,2013-09-22 12:35:00
7:55 AM,38.7,37.9,97,30.07,10.0,Calm,Calm,-,N/A,,Clear,0,2013-09-22 12:55:00
8:15 AM,41.7,40.5,95,30.07,10.0,Calm,Calm,-,N/A,,Clear,0,2013-09-22 13:15:00
8:35 AM,45.5,41.7,87,30.07,10.0,ENE,4.6,-,N/A,,Clear,70,2013-09-22 13:35:00
8:55 AM,47.8,40.8,77,30.07,10.0,East,4.6,-,N/A,,Clear,80,2013-09-22 13:55:00
9:15 AM,49.6,41.4,73,30.08,10.0,East,3.5,-,N/A,,Clear,80,2013-09-22 14:15:00
9:35 AM,52.3,41.5,67,30.07,10.0,East,6.9,-,N/A,,Clear,100,2013-09-22 14:35:00
9:55 AM,54.0,41.5,63,30.07,10.0,ESE,6.9,-,N/A,,Clear,110,2013-09-22 14:55:00
10:15 AM,55.4,41.7,60,30.07,10.0,East,5.8,-,N/A,,Clear,90,2013-09-22 15:15:00
10:35 AM,56.3,42.1,59,30.07,10.0,East,5.8,-,N/A,,Clear,100,2013-09-22 15:35:00
10:55 AM,57.7,42.6,57,30.07,10.0,East,4.6,-,N/A,,Clear,90,2013-09-22 15:55:00
11:15 AM,58.3,43.0,57,30.06,10.0,East,5.8,-,N/A,,Clear,90,2013-09-22 16:15:00
11:35 AM,59.0,43.2,56,30.06,10.0,East,5.8,-,N/A,,Clear,100,2013-09-22 16:35:00
11:55 AM,60.8,43.9,54,30.06,10.0,East,4.6,-,N/A,,Clear,80,2013-09-22 16:55:00
12:15 PM,61.9,43.9,52,30.05,10.0,East,5.8,-,N/A,,Clear,80,2013-09-22 17:15:00
12:35 PM,62.2,44.1,51,30.05,10.0,East,4.6,-,N/A,,Clear,80,2013-09-22 17:35:00
12:55 PM,63.1,44.1,50,30.05,10.0,East,5.8,-,N/A,,Clear,80,2013-09-22 17:55:00
1:15 PM,63.7,44.8,50,30.03,10.0,East,9.2,-,N/A,,Clear,100,2013-09-22 18:15:00
1:35 PM,64.6,44.8,49,30.02,10.0,SE,5.8,-,N/A,,Clear,140,2013-09-22 18:35:00
1:55 PM,65.5,44.8,47,30.02,10.0,East,6.9,-,N/A,,Clear,90,2013-09-22 18:55:00
2:15 PM,65.8,44.6,46,30.01,10.0,SE,8.1,-,N/A,,Clear,140,2013-09-22 19:15:00
2:35 PM,66.0,44.6,46,30.01,10.0,East,5.8,-,N/A,,Clear,100,2013-09-22 19:35:00
2:55 PM,66.2,44.6,46,30.00,10.0,SE,5.8,-,N/A,,Clear,130,2013-09-22 19:55:00
3:15 PM,67.1,44.4,44,29.99,10.0,SE,5.8,-,N/A,,Clear,130,2013-09-22 20:15:00
3:35 PM,67.5,45.0,44,29.99,10.0,SE,10.4,-,N/A,,Clear,130,2013-09-22 20:35:00
3:55 PM,67.6,45.0,44,29.99,10.0,SE,6.9,-,N/A,,Clear,130,2013-09-22 20:55:00
4:15 PM,67.3,44.8,44,29.98,10.0,SSE,6.9,-,N/A,,Clear,160,2013-09-22 21:15:00
4:35 PM,67.6,44.8,44,29.98,10.0,ESE,9.2,-,N/A,,Clear,110,2013-09-22 21:35:00
4:55 PM,67.1,45.1,45,29.98,10.0,SE,6.9,-,N/A,,Clear,130,2013-09-22 21:55:00
5:15 PM,66.4,45.5,47,29.98,10.0,SE,6.9,-,N/A,,Clear,130,2013-09-22 22:15:00
5:35 PM,66.0,45.5,48,29.98,10.0,ESE,6.9,-,N/A,,Clear,120,2013-09-22 22:35:00
5:55 PM,65.1,45.7,49,29.98,10.0,ESE,8.1,-,N/A,,Clear,120,2013-09-22 22:55:00
6:15 PM,64.2,46.2,52,29.98,10.0,ESE,5.8,-,N/A,,Clear,110,2013-09-22 23:15:00
6:35 PM,62.6,46.6,56,29.99,10.0,SE,5.8,-,N/A,,Clear,130,2013-09-22 23:35:00
6:55 PM,60.8,46.6,59,29.99,10.0,ESE,5.8,-,N/A,,Clear,120,2013-09-22 23:55:00
7:15 PM,59.2,46.8,63,29.99,10.0,ESE,4.6,-,N/A,,Clear,120,2013-09-23 00:15:00
7:35 PM,56.5,47.3,71,30.00,10.0,East,3.5,-,N/A,,Clear,100,2013-09-23 00:35:00
7:55 PM,54.1,47.3,78,30.00,10.0,East,4.6,-,N/A,,Clear,100,2013-09-23 00:55:00
8:15 PM,53.6,47.1,79,30.01,10.0,East,4.6,-,N/A,,Clear,100,2013-09-23 01:15:00
8:35 PM,52.9,46.9,80,30.02,10.0,ESE,4.6,-,N/A,,Clear,110,2013-09-23 01:35:00
8:55 PM,51.6,46.6,83,30.02,10.0,ESE,3.5,-,N/A,,Clear,110,2013-09-23 01:55:00
9:15 PM,51.1,46.4,84,30.02,10.0,East,3.5,-,N/A,,Clear,100,2013-09-23 02:15:00
9:35 PM,50.9,45.9,83,30.02,10.0,East,4.6,-,N/A,,Clear,90,2013-09-23 02:35:00
9:55 PM,50.5,45.1,82,30.02,10.0,ESE,3.5,-,N/A,,Clear,110,2013-09-23 02:55:00
10:15 PM,50.9,45.0,80,30.03,10.0,East,3.5,-,N/A,,Clear,100,2013-09-23 03:15:00
10:35 PM,48.4,43.9,84,30.03,10.0,East,3.5,-,N/A,,Clear,100,2013-09-23 03:35:00
10:55 PM,48.2,43.7,84,30.03,10.0,Calm,Calm,-,N/A,,Clear,0,2013-09-23 03:55:00
11:15 PM,48.4,43.7,84,30.03,10.0,Calm,Calm,-,N/A,,Clear,0,2013-09-23 04:15:00
11:35 PM,48.4,43.0,82,30.03,10.0,Calm,Calm,-,N/A,,Clear,0,2013-09-23 04:35:00
11:55 PM,45.9,43.0,90,30.03,10.0,East,4.6,-,N/A,,Clear,100,2013-09-23 04:55:00